Location: Altmatt
(47.1333°N, 8.7000°E)
Time: 08:40:41
(UTC+00:00)

ATLAS 2AS CENTAUR R/B - Pass Details

Date: 13 July 2020
Orbit: 930 x 1282 km, 63.7° (Epoch: 19 July)

Event Time Altitude Azimuth Distance (km) Brightness Sun altitude
Rises 22:06:49 0° 314° (NW) 4,127 6.9 -18.6°
Reaches altitude 10° 22:10:15 10° 301° (WNW) 3,104 5.8 -18.8°
Maximum altitude 22:15:44 23° 253° (WSW) 2,177 4.3 -19.2°
Enters shadow 22:19:36 15° 212° (SSW) 2,586 4.3 -19.4°
